Location: Home
(42.5358°N, 72.7383°W)
Time: 11:30:35
(UTC-05:00)

Vanguard 2 Rocket - Pass Details

Date: 14 December 2025
Orbit: 553 x 3287 km, 32.9° (Epoch: 17 January)

Event Time Altitude Azimuth Distance (km) Brightness Sun altitude
Rises 03:59:28 0° 174° (S) 6,816 11.4 -34.7°
Reaches altitude 10° 04:09:42 10° 147° (SSE) 6,170 11.5 -32.8°
Maximum altitude 04:14:45 11° 131° (SE) 6,096 11.6 -31.9°
Drops below altitude 10° 04:19:49 10° 116° (ESE) 6,202 11.9 -31.0°
Sets 04:29:56 0° 90° (E) 6,918 12.6 -29.1°
